TimeEDT,TemperatureF,Dew PointF,Humidity,Sea Level PressureIn,VisibilityMPH,Wind Direction,Wind SpeedMPH,Gust SpeedMPH,PrecipitationIn,Events,Conditions,WindDirDegrees,DateUTC
12:53 AM,79.0,70.0,74,30.16,10.0,SW,3.5,-,N/A,,Clear,220,2013-07-18 04:53:00
1:53 AM,77.0,70.0,79,30.15,10.0,WSW,3.5,-,N/A,,Clear,240,2013-07-18 05:53:00
2:53 AM,75.9,70.0,82,30.15,10.0,SW,3.5,-,N/A,,Clear,230,2013-07-18 06:53:00
3:53 AM,73.9,69.1,85,30.14,10.0,Calm,Calm,-,N/A,,Clear,0,2013-07-18 07:53:00
4:53 AM,73.9,70.0,87,30.12,9.0,South,3.5,-,N/A,,Clear,190,2013-07-18 08:53:00
5:53 AM,75.0,70.0,84,30.12,10.0,SW,3.5,-,N/A,,Clear,220,2013-07-18 09:53:00
6:53 AM,75.9,70.0,82,30.13,10.0,SW,5.8,-,N/A,,Clear,220,2013-07-18 10:53:00
7:53 AM,79.0,71.1,77,30.12,10.0,SW,4.6,-,N/A,,Clear,230,2013-07-18 11:53:00
8:53 AM,82.0,72.0,71,30.12,10.0,WSW,5.8,-,N/A,,Clear,240,2013-07-18 12:53:00
9:53 AM,86.0,73.9,67,30.12,10.0,WSW,4.6,-,N/A,,Clear,240,2013-07-18 13:53:00
10:53 AM,89.1,73.9,61,30.11,10.0,WSW,6.9,-,N/A,,Clear,240,2013-07-18 14:53:00
11:53 AM,91.0,73.0,55,30.11,10.0,WSW,6.9,-,N/A,,Clear,240,2013-07-18 15:53:00
12:53 PM,89.1,71.1,55,30.09,10.0,WSW,8.1,-,N/A,,Overcast,250,2013-07-18 16:53:00
1:53 PM,90.0,71.1,54,30.06,10.0,Calm,Calm,-,N/A,,Mostly Cloudy,0,2013-07-18 17:53:00
2:53 PM,93.9,71.1,47,30.05,10.0,SW,9.2,-,N/A,,Partly Cloudy,220,2013-07-18 18:53:00
3:53 PM,95.0,71.1,46,30.02,10.0,West,11.5,-,N/A,,Partly Cloudy,260,2013-07-18 19:53:00
4:53 PM,91.9,72.0,52,30.01,10.0,WSW,15.0,23.0,N/A,,Scattered Clouds,240,2013-07-18 20:53:00
5:53 PM,91.0,72.0,53,29.98,10.0,WSW,11.5,-,N/A,,Clear,240,2013-07-18 21:53:00
6:53 PM,91.0,73.0,55,29.97,10.0,SW,8.1,-,N/A,,Clear,220,2013-07-18 22:53:00
7:53 PM,89.1,73.0,59,29.95,10.0,SSW,6.9,-,N/A,,Clear,210,2013-07-18 23:53:00
8:53 PM,86.0,72.0,63,29.94,10.0,SSW,8.1,-,N/A,,Clear,200,2013-07-19 00:53:00
9:53 PM,82.9,73.0,72,29.95,10.0,SW,5.8,-,N/A,,Clear,220,2013-07-19 01:53:00
10:53 PM,82.0,73.0,74,29.95,10.0,SSW,6.9,-,N/A,,Clear,200,2013-07-19 02:53:00
11:53 PM,82.9,72.0,69,29.95,10.0,SW,9.2,-,N/A,,Clear,220,2013-07-19 03:53:00